Weather History for KCKV - November, 2010

Change the Weather History Date:

Tuesday, November 16, 2010

  Actual Average Record
Temperature  
Mean Temperature 42 °F -  
Max Temperature 47 °F - - ()
Min Temperature 37 °F - - ()
Degree Days  
Heating Degree Days 23    
Month to date heating degree days 249  
Since 1 July heating degree days 425  
Cooling Degree Days 0    
Month to date cooling degree days 0  
Year to date cooling degree days 1950  
Moisture  
Dew Point 41 °F    
Average Humidity 95    
Maximum Humidity 100    
Minimum Humidity 89    
Precipitation  
Precipitation 1.34 in - - ()
Month to date precipitation 1.67  
Year to date precipitation 33.46  
Sea Level Pressure  
Sea Level Pressure 29.63 in    
Wind  
Wind Speed 7 mph (NW)    
Max Wind Speed 21 mph    
Max Gust Speed 25 mph    
Visibility 5 miles    
Events Rain    
T = Trace of Precipitation, MM = Missing Value Source: NWS Daily Summary

Daily Weather History Graph

Daily Weather History Graph

Search for Another Location

Airport or City:

Trip Planner

Search our weather history database for the weather conditions in past years. The results will help you decide how hot, cold, wet, or windy it might be!

Date:

Astronomy

Nov. 16, 2010 Rise Set
Actual Time 6:28 AM CST 4:40 PM CST
Civil Twilight 6:00 AM CST 5:07 PM CST
Nautical Twilight 5:29 AM CST 5:38 PM CST
Astronomical Twilight 4:58 AM CST 6:09 PM CST
Moon 1:40 PM CST (11/16) 1:36 AM CST (11/16)
Length of Visible Light 11h 06m
Length of Day
10h 11m
Waxing Gibbous, 77% of the Moon is Illuminated
Nov 16
Waxing Gibbous
Nov 21
Full
Nov 28
Last Quarter
Dec 5
New
Dec 13
First Quarter

Hourly Weather History & Observations

Time (CST) Temp. Windchill Dew Point Humidity Pressure Visibility Wind Dir Wind Speed Gust Speed Precip Events Conditions
12:02 AM 37.4 °F 34.9 °F 37.4 °F 100% 29.79 in 1.0 mi NNE 3.5 mph - N/A   Mist
12:09 AM 37.4 °F 33.8 °F 35.6 °F 93% 29.78 in 1.5 mi NE 4.6 mph - N/A   Clear
12:21 AM 39.2 °F 35.9 °F 37.4 °F 93% 29.77 in 2.5 mi NE 4.6 mph - N/A   Clear
12:29 AM 39.2 °F 37.0 °F 37.4 °F 93% 29.77 in 3.0 mi NE 3.5 mph - N/A   Clear
12:52 AM 39.0 °F - 37.9 °F 96% 29.77 in 3.0 mi Calm Calm - N/A   Clear
1:52 AM 39.9 °F 37.8 °F 39.0 °F 97% 29.75 in 3.0 mi NE 3.5 mph - N/A   Clear
2:52 AM 39.9 °F 36.7 °F 39.0 °F 97% 29.72 in 4.0 mi NNE 4.6 mph - N/A   Clear
3:52 AM 41.0 °F 38.0 °F 39.9 °F 96% 29.70 in 4.0 mi NE 4.6 mph - N/A   Overcast
4:26 AM 42.8 °F 39.3 °F 39.2 °F 87% 29.68 in 4.0 mi NNE 5.8 mph - N/A   Overcast
4:38 AM 42.8 °F 39.3 °F 39.2 °F 87% 29.67 in 4.0 mi NNE 5.8 mph - N/A   Overcast
4:52 AM 42.1 °F 38.4 °F 39.9 °F 92% 29.66 in 3.0 mi NNE 5.8 mph - N/A   Overcast
6:13 AM 42.8 °F - 41.0 °F 93% 29.64 in 2.5 mi Calm Calm - 0.03 in Rain Rain
6:49 AM 42.8 °F 41.1 °F 42.8 °F 100% 29.61 in 2.5 mi NNE 3.5 mph - 0.11 in Rain Light Rain
6:52 AM 43.0 °F - 42.1 °F 97% 29.61 in 2.5 mi Calm Calm - 0.11 in Rain Light Rain
7:04 AM 42.8 °F 40.1 °F 42.8 °F 100% 29.60 in 2.5 mi ENE 4.6 mph - 0.03 in Rain Light Rain
7:14 AM 42.8 °F 39.3 °F 42.8 °F 100% 29.59 in 1.8 mi ENE 5.8 mph - 0.05 in Rain Rain
7:35 AM 44.6 °F 41.4 °F 42.8 °F 93% 29.57 in 2.0 mi NNE 5.8 mph - 0.08 in Rain Light Rain
7:52 AM 44.1 °F 41.5 °F 43.0 °F 96% 29.57 in 2.5 mi North 4.6 mph - 0.10 in Rain Light Rain
8:42 AM 44.6 °F 40.2 °F 42.8 °F 93% 29.52 in 2.0 mi NNE 8.1 mph - 0.09 in Rain Light Rain
8:52 AM 45.0 °F 41.2 °F 44.1 °F 97% 29.53 in 3.0 mi NNE 6.9 mph - 0.10 in Rain Light Rain
9:23 AM 46.4 °F 42.9 °F 44.6 °F 93% 29.48 in 2.5 mi NE 6.9 mph 19.6 mph 0.05 in Rain Rain
9:35 AM 46.4 °F 44.3 °F 44.6 °F 93% 29.50 in 5.0 mi NW 4.6 mph - 0.06 in Rain Light Rain
9:52 AM 46.0 °F 41.9 °F 45.0 °F 96% 29.48 in 6.0 mi North 8.1 mph - 0.06 in   Overcast
10:36 AM 46.4 °F 41.1 °F 44.6 °F 93% 29.45 in 2.0 mi NNW 11.5 mph - 0.04 in Rain Rain
10:49 AM 46.4 °F 42.9 °F 44.6 °F 93% 29.45 in 3.0 mi WNW 6.9 mph - 0.06 in Rain Light Rain
10:52 AM 46.0 °F 42.5 °F 44.1 °F 93% 29.46 in 2.5 mi WNW 6.9 mph - 0.07 in Rain Rain
11:12 AM 46.4 °F 41.9 °F 44.6 °F 93% 29.45 in 1.8 mi NW 9.2 mph - 0.05 in Rain Rain
11:23 AM 44.6 °F 38.8 °F 42.8 °F 93% 29.46 in 1.2 mi NW 11.5 mph - 0.11 in Rain Heavy Rain
11:52 AM 44.1 °F 37.1 °F 42.1 °F 93% 29.47 in 2.0 mi WNW 15.0 mph 20.7 mph 0.28 in Rain Heavy Rain
12:03 PM 42.8 °F 34.3 °F 41.0 °F 93% 29.45 in 3.0 mi WNW 19.6 mph 25.3 mph 0.02 in Rain Rain
12:13 PM 42.8 °F 36.2 °F 41.0 °F 93% 29.45 in 6.0 mi WNW 12.7 mph 20.7 mph 0.03 in Rain Light Rain
12:21 PM 42.8 °F 36.6 °F 41.0 °F 93% 29.45 in 1.8 mi NW 11.5 mph - 0.09 in Rain Heavy Rain
12:34 PM 42.8 °F 37.5 °F 41.0 °F 93% 29.46 in 1.8 mi WNW 9.2 mph - 0.16 in Rain Heavy Rain
12:38 PM 42.8 °F 37.0 °F 41.0 °F 93% 29.46 in 1.8 mi West 10.4 mph - 0.17 in Rain Rain
12:47 PM 42.8 °F 37.0 °F 41.0 °F 93% 29.47 in 2.0 mi West 10.4 mph - 0.21 in Rain Rain
12:52 PM 42.1 °F 37.1 °F 41.0 °F 96% 29.49 in 2.5 mi WSW 8.1 mph - 0.22 in Rain Rain
1:08 PM 42.8 °F 36.6 °F 41.0 °F 93% 29.49 in 4.0 mi West 11.5 mph - 0.05 in Rain Light Rain
1:27 PM 42.8 °F 37.0 °F 41.0 °F 93% 29.50 in 2.0 mi WSW 10.4 mph - 0.12 in Rain Heavy Rain
1:38 PM 42.8 °F 36.6 °F 41.0 °F 93% 29.50 in 5.0 mi West 11.5 mph - 0.14 in Rain Light Rain
1:52 PM 43.0 °F 37.2 °F 42.1 °F 97% 29.51 in 6.0 mi WNW 10.4 mph - 0.16 in Rain Light Rain
2:52 PM 44.1 °F 39.0 °F 42.1 °F 93% 29.57 in 4.0 mi WSW 9.2 mph - 0.06 in Rain Light Rain
3:52 PM 44.1 °F 38.1 °F 42.1 °F 93% 29.61 in 10.0 mi West 11.5 mph - 0.04 in Rain Light Rain
4:52 PM 44.1 °F 38.6 °F 41.0 °F 89% 29.66 in 6.0 mi West 10.4 mph - 0.03 in Rain Light Rain
4:59 PM 42.8 °F 35.8 °F 41.0 °F 93% 29.66 in 6.0 mi West 13.8 mph - 0.01 in Rain Light Rain
5:11 PM 42.8 °F 36.2 °F 41.0 °F 93% 29.67 in 6.0 mi West 12.7 mph - 0.02 in Rain Light Rain
5:18 PM 42.8 °F 36.6 °F 41.0 °F 93% 29.68 in 6.0 mi West 11.5 mph - 0.03 in Rain Light Rain
5:52 PM 43.0 °F 36.0 °F 39.9 °F 89% 29.72 in 7.0 mi West 13.8 mph 23.0 mph 0.05 in Rain Light Rain
6:52 PM 42.1 °F 35.2 °F 39.0 °F 89% 29.77 in 8.0 mi West 12.7 mph - 0.04 in Rain Light Rain
7:27 PM 41.0 °F 34.7 °F 39.2 °F 93% 29.78 in 8.0 mi West 10.4 mph - 0.01 in Rain Light Rain
7:35 PM 41.0 °F 35.8 °F 39.2 °F 93% 29.78 in 9.0 mi West 8.1 mph - 0.01 in Rain Light Rain
7:52 PM 41.0 °F 36.4 °F 39.0 °F 93% 29.80 in 10.0 mi West 6.9 mph - 0.01 in   Overcast
8:52 PM 41.0 °F 35.8 °F 39.0 °F 93% 29.83 in 10.0 mi WSW 8.1 mph - N/A   Overcast
9:52 PM 41.0 °F 36.4 °F 39.0 °F 93% 29.87 in 10.0 mi SW 6.9 mph - N/A   Overcast
10:17 PM 41.0 °F 36.4 °F 39.2 °F 93% 29.87 in 10.0 mi SSW 6.9 mph - N/A   Overcast
10:42 PM 41.0 °F 35.8 °F 39.2 °F 93% 29.88 in 10.0 mi SW 8.1 mph - N/A   Overcast
10:52 PM 41.0 °F 35.2 °F 39.0 °F 93% 29.89 in 10.0 mi SW 9.2 mph - N/A   Overcast
11:26 PM 41.0 °F 35.2 °F 39.2 °F 93% 29.90 in 10.0 mi WSW 9.2 mph - N/A   Overcast
11:52 PM 41.0 °F 35.2 °F 39.0 °F 93% 29.92 in 10.0 mi WSW 9.2 mph - N/A   Overcast